• In Netherlands
  • List of Countries
  • For 7 days
  • Water Temperature
  • Satellite Maps
  • Weather Map
  • Weather Widgets
  • user-avatar
    Login

    Hourly Weather Ondjiwa

    Today, 26 May, Friday

    Time Temperature Precipitation Wind Pressure Humidity
    00:00 +20°C° 0 mm 2 mps 667 mmHg 40%
    01:00 +19°C° 0 mm 3 mps 667 mmHg 43%
    02:00 +19°C° 0 mm 2 mps 667 mmHg 44%
    03:00 +19°C° 0 mm 2 mps 667 mmHg 45%
    04:00 +19°C° 0 mm 2 mps 667 mmHg 47%
    05:00 +19°C° 0 mm 1 mps 667 mmHg 49%
    06:00 +19°C° 0 mm 1 mps 667 mmHg 51%
    07:00 +17°C° 0 mm 0 mps 667 mmHg 53%
    08:00 +22°C° 0 mm 1 mps 668 mmHg 46%
    09:00 +25°C° 0 mm 1 mps 669 mmHg 38%
    10:00 +28°C° 0 mm 2 mps 670 mmHg 30%
    11:00 +29°C° 0 mm 2 mps 670 mmHg 29%
    12:00 +30°C° 0 mm 2 mps 669 mmHg 27%
    13:00 +31°C° 0 mm 2 mps 669 mmHg 26%
    14:00 +31°C° 0 mm 2 mps 669 mmHg 26%
    15:00 +31°C° 0 mm 1 mps 669 mmHg 25%
    16:00 +31°C° 0 mm 1 mps 668 mmHg 25%
    17:00 +29°C° 0 mm 1 mps 668 mmHg 28%
    18:00 +27°C° 0 mm 2 mps 668 mmHg 31%
    19:00 +25°C° 0 mm 2 mps 668 mmHg 35%
    20:00 +25°C° 0 mm 2 mps 668 mmHg 37%
    21:00 +24°C° 0 mm 2 mps 669 mmHg 39%
    22:00 +24°C° 0 mm 2 mps 669 mmHg 41%
    23:00 +23°C° 0 mm 2 mps 669 mmHg 45%

    Tomorrow, 27 May, Saturday

    Time Temperature Precipitation Wind Pressure Humidity
    00:00 +21°C° 0 mm 2 mps 668 mmHg 48%
    01:00 +21°C° 0 mm 1 mps 668 mmHg 51%
    02:00 +20°C° 0 mm 1 mps 668 mmHg 53%
    03:00 +20°C° 0 mm 1 mps 668 mmHg 55%
    04:00 +19°C° 0 mm 1 mps 668 mmHg 57%
    05:00 +20°C° 0 mm 1 mps 668 mmHg 57%
    06:00 +20°C° 0 mm 1 mps 669 mmHg 58%
    07:00 +20°C° 0 mm 1 mps 669 mmHg 58%
    08:00 +23°C° 0 mm 1 mps 670 mmHg 49%
    09:00 +27°C° 0 mm 1 mps 671 mmHg 41%
    10:00 +30°C° 0 mm 1 mps 672 mmHg 32%
    11:00 +31°C° 0 mm 1 mps 672 mmHg 28%
    12:00 +31°C° 0 mm 0 mps 671 mmHg 25%
    13:00 +32°C° 0 mm 0 mps 671 mmHg 21%
    14:00 +31°C° 0 mm 0 mps 670 mmHg 23%
    15:00 +32°C° 0 mm 1 mps 670 mmHg 25%
    16:00 +30°C° 0 mm 1 mps 669 mmHg 27%
    17:00 +28°C° 0 mm 1 mps 669 mmHg 30%
    18:00 +27°C° 0 mm 2 mps 669 mmHg 34%
    19:00 +25°C° 0 mm 2 mps 669 mmHg 38%
    20:00 +24°C° 0 mm 2 mps 669 mmHg 39%
    21:00 +23°C° 0 mm 2 mps 669 mmHg 39%
    22:00 +23°C° 0 mm 1 mps 670 mmHg 40%
    23:00 +22°C° 0 mm 1 mps 670 mmHg 41%

    Day after tomorrow, 28 May, Sunday

    Time Temperature Precipitation Wind Pressure Humidity
    00:00 +22°C° 0 mm 1 mps 669 mmHg 41%
    01:00 +21°C° 0 mm 1 mps 669 mmHg 42%
    02:00 +20°C° 0 mm 2 mps 669 mmHg 42%
    03:00 +19°C° 0 mm 2 mps 669 mmHg 42%
    04:00 +18°C° 0 mm 2 mps 669 mmHg 41%
    05:00 +18°C° 0 mm 2 mps 669 mmHg 42%
    06:00 +18°C° 0 mm 2 mps 669 mmHg 42%
    07:00 +18°C° 0 mm 2 mps 670 mmHg 42%
    08:00 +21°C° 0 mm 2 mps 671 mmHg 35%
    09:00 +26°C° 0 mm 2 mps 672 mmHg 29%
    10:00 +29°C° 0 mm 2 mps 673 mmHg 23%
    11:00 +31°C° 0 mm 2 mps 673 mmHg 21%
    12:00 +32°C° 0 mm 1 mps 672 mmHg 19%
    13:00 +34°C° 0 mm 1 mps 672 mmHg 17%
    14:00 +33°C° 0 mm 1 mps 671 mmHg 18%
    15:00 +32°C° 0 mm 1 mps 671 mmHg 19%
    16:00 +32°C° 0 mm 1 mps 670 mmHg 19%
    17:00 +29°C° 0 mm 2 mps 670 mmHg 24%
    18:00 +26°C° 0 mm 2 mps 670 mmHg 28%
    19:00 +24°C° 0 mm 2 mps 669 mmHg 33%
    20:00 +23°C° 0 mm 2 mps 670 mmHg 34%
    21:00 +23°C° 0 mm 2 mps 670 mmHg 35%
    22:00 +21°C° 0 mm 2 mps 671 mmHg 35%
    23:00 +21°C° 0 mm 2 mps 670 mmHg 36%

    29 May, Monday

    Time Temperature Precipitation Wind Pressure Humidity
    00:00 +20°C° 0 mm 2 mps 670 mmHg 36%
    01:00 +19°C° 0 mm 3 mps 670 mmHg 37%
    02:00 +19°C° 0 mm 3 mps 669 mmHg 37%
    03:00 +18°C° 0 mm 2 mps 669 mmHg 38%
    04:00 +17°C° 0 mm 2 mps 669 mmHg 38%
    05:00 +17°C° 0 mm 2 mps 670 mmHg 38%
    06:00 +17°C° 0 mm 2 mps 670 mmHg 38%
    07:00 +17°C° 0 mm 2 mps 670 mmHg 38%
    08:00 +20°C° 0 mm 3 mps 671 mmHg 32%
    09:00 +25°C° 0 mm 4 mps 672 mmHg 26%
    10:00 +28°C° 0 mm 5 mps 673 mmHg 20%
    11:00 +30°C° 0 mm 4 mps 672 mmHg 19%
    12:00 +32°C° 0 mm 4 mps 672 mmHg 18%
    13:00 +34°C° 0 mm 3 mps 671 mmHg 18%
    14:00 +34°C° 0 mm 2 mps 671 mmHg 18%
    15:00 +32°C° 0 mm 2 mps 670 mmHg 18%
    16:00 +32°C° 0 mm 1 mps 670 mmHg 17%
    17:00 +30°C° 0 mm 2 mps 670 mmHg 21%
    18:00 +27°C° 0 mm 2 mps 670 mmHg 25%
    19:00 +24°C° 0 mm 3 mps 670 mmHg 29%
    20:00 +22°C° 0 mm 3 mps 670 mmHg 30%
    21:00 +22°C° 0 mm 3 mps 670 mmHg 31%
    22:00 +21°C° 0 mm 3 mps 670 mmHg 31%
    23:00 +21°C° 0 mm 3 mps 670 mmHg 32%

    30 May, Tuesday

    Time Temperature Precipitation Wind Pressure Humidity
    00:00 +20°C° 0 mm 3 mps 670 mmHg 32%
    01:00 +20°C° 0 mm 3 mps 670 mmHg 32%
    02:00 +19°C° 0 mm 3 mps 670 mmHg 34%
    03:00 +18°C° 0 mm 3 mps 670 mmHg 35%
    04:00 +17°C° 0 mm 3 mps 669 mmHg 37%
    05:00 +17°C° 0 mm 3 mps 670 mmHg 38%
    06:00 +17°C° 0 mm 3 mps 670 mmHg 38%
    07:00 +16°C° 0 mm 3 mps 671 mmHg 39%
    08:00 +20°C° 0 mm 4 mps 671 mmHg 33%
    09:00 +23°C° 0 mm 4 mps 672 mmHg 27%
    10:00 +27°C° 0 mm 5 mps 673 mmHg 22%
    11:00 +29°C° 0 mm 5 mps 672 mmHg 20%
    12:00 +32°C° 0 mm 4 mps 672 mmHg 18%
    13:00 +34°C° 0 mm 4 mps 671 mmHg 16%
    14:00 +33°C° 0 mm 4 mps 671 mmHg 16%
    15:00 +33°C° 0 mm 3 mps 670 mmHg 17%
    16:00 +33°C° 0 mm 3 mps 670 mmHg 17%
    17:00 +29°C° 0 mm 3 mps 670 mmHg 21%
    18:00 +26°C° 0 mm 3 mps 670 mmHg 25%
    19:00 +22°C° 0 mm 3 mps 670 mmHg 29%
    20:00 +22°C° 0 mm 3 mps 670 mmHg 31%
    21:00 +21°C° 0 mm 3 mps 670 mmHg 32%
    22:00 +20°C° 0 mm 3 mps 670 mmHg 34%
    23:00 +19°C° 0 mm 3 mps 670 mmHg 35%

    31 May, Wednesday

    Time Temperature Precipitation Wind Pressure Humidity
    00:00 +19°C° 0 mm 3 mps 670 mmHg 36%
    01:00 +18°C° 0 mm 3 mps 670 mmHg 37%
    02:00 +18°C° 0 mm 4 mps 670 mmHg 39%
    03:00 +17°C° 0 mm 4 mps 670 mmHg 41%
    04:00 +17°C° 0 mm 4 mps 670 mmHg 43%
    05:00 +17°C° 0 mm 4 mps 670 mmHg 45%
    06:00 +16°C° 0 mm 3 mps 671 mmHg 47%
    07:00 +16°C° 0 mm 3 mps 671 mmHg 48%
    08:00 +19°C° 0 mm 4 mps 672 mmHg 41%
    09:00 +22°C° 0 mm 4 mps 673 mmHg 34%
    10:00 +27°C° 0 mm 5 mps 673 mmHg 26%
    11:00 +28°C° 0 mm 4 mps 673 mmHg 23%
    12:00 +30°C° 0 mm 4 mps 672 mmHg 21%
    13:00 +31°C° 0 mm 3 mps 672 mmHg 18%
    14:00 +31°C° 0 mm 3 mps 671 mmHg 17%
    15:00 +31°C° 0 mm 3 mps 671 mmHg 17%
    16:00 +31°C° 0 mm 3 mps 670 mmHg 16%
    17:00 +28°C° 0 mm 3 mps 670 mmHg 20%
    18:00 +25°C° 0 mm 3 mps 670 mmHg 24%
    19:00 +21°C° 0 mm 2 mps 670 mmHg 28%
    20:00 +20°C° 0 mm 3 mps 670 mmHg 29%
    21:00 +19°C° 0 mm 3 mps 670 mmHg 31%
    22:00 +19°C° 0 mm 3 mps 670 mmHg 32%
    23:00 +18°C° 0 mm 3 mps 670 mmHg 34%
    Show more